Location: Newark
(48.5667°N, 7.8167°E)
Time: 11:45:16
(UTC+00:00)

CZ-6 R/B - Pass Details

Date: 30 November 2021
Orbit: 384 x 500 km, 97.7° (Epoch: 18 January)

Event Time Altitude Azimuth Distance (km) Brightness Sun altitude
Exits shadow 16:33:01 - 12° (NNE) 2,378 ? -9.2°
Reaches altitude 10° 16:35:03 10° 11° (N) 1,493 ? -9.5°
Maximum altitude 16:38:13 77° 286° (WNW) 419 ? -10.0°
Drops below altitude 10° 16:41:16 10° 199° (SSW) 1,433 ? -10.4°
Sets 16:43:11 0° 198° (SSW) 2,273 ? -10.7°
